Home   Weather   Miskolc   Past weeks

Flag for Hungary Past Weather in Miskolc, Hungary — Yesterday and Last 2 Weeks

Now
40 °F

Sunny.


Feels Like: 40 °F
Forecast: 39 / 56 °F
Wind: No wind

Location: Miskolc

Current Time: Feb 27, 2017 at 10:17:37 am

Latest Report: Feb 27, 2017 at 9:00 am


Visibility: 13 mi

Pressure: 30.11 "Hg

Humidity: 59%

Dew Point: 27 °F

Location of MiskolcLocation

Past Weather in Miskolc — Graph

°F

Miskolc Temperature Yesterday

Maximum temperature yesterday: 49 °F (at 2:00 pm)
Minimum temperature yesterday: 26 °F (at 7:00 am)
Average temperature yesterday: 38 °F

High & Low Weather Summary for the Past Weeks

 TemperatureHumidityPressure
High58 °F (Feb 23, 3:00 pm)93% (Feb 12, 1:00 pm)30.68 "Hg (Feb 12, 1:00 pm)
Low24 °F (Feb 13, 7:00 am)29% (Feb 25, 10:00 am)29.55 "Hg (Feb 24, 6:00 am)
Average36 °F78%30.22 "Hg
* Reported Feb 12 8:00 am — Feb 27 8:00 am, Miskolc, Weather by CustomWeather, © 2017

Note: Actual official high and low records may vary slightly from our data, if they occured in-between our weather recording intervals... More about our weather records

Advertising

Miskolc Weather History for the Previous 24 Hours

Scroll right to see more
 ConditionsComfort  
Time TempWeatherWind HumidityBarometerVisibility
8:00 am
Mon, Feb 27
32 °FSunny.No wind79%30.12 "Hg12 mi
7:00 am28 °FPassing clouds.No wind83%30.11 "Hg19 mi
6:00 am28 °FClear.No wind80%30.11 "Hg19 mi
5:00 am29 °FClear.No wind78%30.10 "Hg19 mi
4:00 am30 °FClear.No wind76%30.09 "Hg22 mi
3:00 am31 °FClear.1 mph74%30.09 "Hg22 mi
2:00 am32 °FClear.1 mph71%30.10 "Hg22 mi
1:00 am35 °FPassing clouds.No wind68%30.10 "Hg22 mi
12:00 am38 °FOvercast.No wind66%30.09 "Hg22 mi
11:00 pm
Sun, Feb 26
39 °FOvercast.No wind61%30.10 "Hg22 mi
10:00 pm40 °FOvercast.No wind60%30.10 "Hg25 mi
9:00 pm40 °FOvercast.No wind59%30.10 "Hg25 mi
8:00 pm41 °FOvercast.1 mph55%30.10 "Hg25 mi
7:00 pm43 °FOvercast.1 mph51%30.10 "Hg25 mi
6:00 pm44 °FOvercast.No wind46%30.09 "Hg25 mi
5:00 pm46 °FOvercast.1 mph43%30.08 "Hg25 mi
4:00 pm47 °FOvercast.1 mph39%30.09 "Hg25 mi
3:00 pm47 °FOvercast.3 mph38%30.11 "Hg25 mi
2:00 pm49 °FOvercast.2 mph33%30.11 "Hg28 mi
1:00 pm48 °FOvercast.3 mph32%30.14 "Hg28 mi
12:00 pm48 °FOvercast.3 mph33%30.17 "Hg28 mi
11:00 am48 °FPartly sunny.2 mph36%30.18 "Hg28 mi
10:00 am41 °FPartly sunny.2 mph53%30.20 "Hg25 mi
Weather by CustomWeather, © 2017

See weather overviewHow to use our weather pages